Terminal Aerodrome Forecast
Issued by NWS Cleveland, OH

Home | Current Version | Previous Version | Graphics & Text | Print | Product List | Glossary Off
Versions: 1 2 3 4 5 6 7 8 9 10 11 12 13 14 15 16 17 18 19 20 21 22

000
FTUS41 KCLE 011501 AAA
TAFMFD
TAF AMD
KMFD 011501Z 0115/0212 36015KT P6SM OVC004
     FM011800 02012KT P6SM BKN008 OVC012
     FM012100 02007KT P6SM VCSH OVC015
     FM020800 01004KT P6SM BKN025 OVC150=

USA.gov is the U.S. government's official web portal to all federal, state and local government web resources and services.